Flag for Germany Weather past 2 weeks in Weiden in der Oberpfalz, Bavaria, Germany

Now
84 °F

Clear.


Feels Like: 83 °F
Forecast: 60 / 91 °F
Wind: 2 mph from East

Location: Weiden

Current Time: Aug 30, 2015 at 9:08:08 PM

Latest Report: Aug 30, 2015 at 8:00 PM


Visibility: 37 mi

Pressure: 29.98 "Hg

Humidity: 37%

Dew point: 55 °F

Location of Weiden in der OberpfalzLocation

Historic Weather in Weiden in der Oberpfalz — Graph

°F

Weiden in der Oberpfalz temperature yesterday

Maximum temperature yesterday: 87 °F (at 4:00 PM)
Minimum temperature yesterday: 62 °F (at 6:00 AM)
Average temperature yesterday: 74 °F

Past Weeks' High & Low Weather Summary

 TemperatureHumidityPressure
High93 °F (Aug 30, 5:00 PM)99% (Aug 19, 2:00 AM)30.28 "Hg (Aug 19, 2:00 AM)
Low48 °F (Aug 26, 7:00 AM)26% (Aug 30, 5:00 PM)29.66 "Hg (Aug 24, 5:00 PM)
Average65 °F72%30.01 "Hg
* Reported Aug 15 8:00 PM — Aug 30 8:00 PM, Weiden in der Oberpfalz, Weather by CustomWeather, © 2015

Note: Actual official high and low records may vary slightly from our data, if they occured in-between our weather recording intervals... More about our weather records

Advertising

Weiden in der Oberpfalz weather history for previous 24 hours

 ConditionsComfort  
Time TempWeatherWind HumidityBarometerVisibility
8:00 PM
Sun, Aug 30
84 °FClear.2 mph37%29.98 "Hg37 mi
7:00 PM87 °FSunny.2 mph40%29.96 "Hg28 mi
6:00 PM92 °FSunny.1 mph30%29.96 "Hg34 mi
5:00 PM93 °FSunny.1 mph26%29.97 "Hg25 mi
4:00 PM91 °FSunny.1 mph28%29.98 "Hg22 mi
3:00 PM89 °FSunny.1 mph31%30.01 "Hg14 mi
2:00 PM87 °FSunny.2 mph38%30.03 "Hg14 mi
1:00 PM84 °FSunny.2 mph47%30.05 "Hg12 mi
12:00 PM80 °FSunny.2 mph54%30.08 "Hg13 mi
11:00 AM78 °FSunny.1 mph60%30.09 "Hg15 mi
10:00 AM73 °FSunny.1 mph66%30.10 "Hg14 mi
9:00 AM69 °FSunny.1 mph74%30.11 "Hg12 mi
8:00 AM65 °FSunny.1 mph81%30.12 "Hg11 mi
7:00 AM63 °FSunny.1 mph92%30.12 "Hg9 mi
6:00 AM64 °FClear.1 mph91%30.11 "Hg10 mi
5:00 AM64 °FClear.1 mph90%30.11 "Hg11 mi
4:00 AM65 °FClear.1 mph89%30.12 "Hg11 mi
3:00 AM66 °FClear.1 mph87%30.12 "Hg14 mi
2:00 AM67 °FClear.1 mph84%30.12 "Hg14 mi
1:00 AM70 °FClear.1 mph78%30.13 "Hg12 mi
11:00 PM
Sat, Aug 29
76 °FClear.2 mph63%30.11 "Hg22 mi
10:00 PM73 °FClear.1 mph66%30.11 "Hg18 mi
9:00 PM73 °FClear.2 mph66%30.11 "Hg22 mi
Weather by CustomWeather, © 2015

See weather overviewHow to use our weather pages